TimeCDT,TemperatureF,Dew PointF,Humidity,Sea Level PressureIn,VisibilityMPH,Wind Direction,Wind SpeedMPH,Gust SpeedMPH,PrecipitationIn,Events,Conditions,WindDirDegrees,DateUTC
12:55 AM,68.0,68.0,100,30.02,10.0,Calm,Calm,-,N/A,,Clear,0,2013-08-02 05:55:00
1:55 AM,68.0,68.0,100,30.00,10.0,Calm,Calm,-,N/A,,Clear,0,2013-08-02 06:55:00
2:55 AM,68.0,68.0,100,29.99,10.0,Calm,Calm,-,N/A,,Clear,0,2013-08-02 07:55:00
3:15 AM,66.2,66.2,100,29.98,6.0,Calm,Calm,-,N/A,,Clear,0,2013-08-02 08:15:00
3:35 AM,68.0,68.0,100,29.98,6.0,Calm,Calm,-,N/A,,Clear,0,2013-08-02 08:35:00
3:55 AM,66.2,66.2,100,30.00,2.5,Calm,Calm,-,N/A,,Clear,0,2013-08-02 08:55:00
4:15 AM,66.2,66.2,100,30.00,5.0,Calm,Calm,-,N/A,,Clear,0,2013-08-02 09:15:00
4:35 AM,66.2,66.2,100,30.00,4.0,Calm,Calm,-,N/A,,Clear,0,2013-08-02 09:35:00
4:55 AM,66.2,66.2,100,30.00,3.0,Calm,Calm,-,N/A,,Clear,0,2013-08-02 09:55:00
5:15 AM,66.2,66.2,100,30.00,1.0,Calm,Calm,-,N/A,,Unknown,0,2013-08-02 10:15:00
5:35 AM,66.2,66.2,100,30.00,7.0,Calm,Calm,-,N/A,,Scattered Clouds,0,2013-08-02 10:35:00
5:55 AM,66.2,66.2,100,30.01,7.0,Calm,Calm,-,N/A,,Mostly Cloudy,0,2013-08-02 10:55:00
6:55 AM,66.2,66.2,100,30.02,10.0,Calm,Calm,-,N/A,,Mostly Cloudy,0,2013-08-02 11:55:00
7:55 AM,71.6,69.8,94,30.03,10.0,SE,3.5,-,N/A,,Mostly Cloudy,130,2013-08-02 12:55:00
8:55 AM,75.2,71.6,89,30.03,10.0,Calm,Calm,-,N/A,,Scattered Clouds,0,2013-08-02 13:55:00
9:55 AM,80.6,71.6,74,30.03,10.0,Variable,3.5,-,N/A,,Scattered Clouds,0,2013-08-02 14:55:00
10:55 AM,82.4,69.8,66,30.03,10.0,SE,8.1,-,N/A,,Mostly Cloudy,140,2013-08-02 15:55:00
11:55 AM,84.2,69.8,62,30.04,10.0,SSE,5.8,-,N/A,,Mostly Cloudy,150,2013-08-02 16:55:00
12:55 PM,86.0,71.6,62,30.03,10.0,SSE,3.5,-,N/A,,Mostly Cloudy,160,2013-08-02 17:55:00
1:55 PM,87.8,69.8,55,30.01,10.0,Variable,5.8,-,N/A,,Mostly Cloudy,0,2013-08-02 18:55:00
2:55 PM,87.8,71.6,58,29.99,10.0,Variable,5.8,-,N/A,,Mostly Cloudy,0,2013-08-02 19:55:00
3:55 PM,87.8,71.6,58,29.99,10.0,Calm,Calm,-,N/A,,Mostly Cloudy,0,2013-08-02 20:55:00
4:55 PM,87.8,71.6,58,29.98,10.0,Variable,3.5,-,N/A,,Mostly Cloudy,0,2013-08-02 21:55:00
5:55 PM,87.8,71.6,58,29.96,10.0,ESE,3.5,-,N/A,,Scattered Clouds,120,2013-08-02 22:55:00
6:55 PM,84.2,73.4,70,29.96,10.0,Calm,Calm,-,N/A,,Scattered Clouds,0,2013-08-02 23:55:00
7:55 PM,80.6,73.4,79,29.96,10.0,East,3.5,-,N/A,,Scattered Clouds,90,2013-08-03 00:55:00
8:55 PM,77.0,71.6,83,29.98,10.0,ESE,3.5,-,N/A,,Scattered Clouds,110,2013-08-03 01:55:00
9:55 PM,75.2,71.6,89,29.99,10.0,Calm,Calm,-,N/A,,Scattered Clouds,0,2013-08-03 02:55:00
10:55 PM,75.2,71.6,89,29.98,10.0,East,4.6,-,N/A,,Scattered Clouds,100,2013-08-03 03:55:00
11:55 PM,73.4,71.6,94,29.97,10.0,ESE,3.5,-,N/A,,Scattered Clouds,120,2013-08-03 04:55:00